sat.trackr.live / text

‹ back to catalog

STARLINK-37958

NORAD 69559 · 2026-135P

PAYLOAD ACTIVE UNKNOWN

§ Identity

Operator
Country
US
Launch date
2026-06-15
Launch site
AFWTR
Launch vehicle
Mass (kg)
RCS (m²)

Purposes: comms

External: N2YO · Heavens-Above · Gunter

§ Orbital elements

Epoch: 2026-09-19T19:10:09.620544Z

Period
93.91 min
Inclination
97.2839°
Eccentricity
0.0001294
Mean motion
15.33457578 rev/d
Perigee alt
464.6 km
Apogee alt
466.4 km
Semi-major
6,843.6 km
B*
6.8131e-4
RAAN
290.5124°
Arg perigee
107.8117°
Mean anomaly
252.3267°
Rev number
1,489

§ Raw data

STARLINK-379581 69559U 26135P   26262.79872246  .00021993  00000+0  68131-3 0  99992 69559  97.2839 290.5124 0001294 107.8117 252.3267 15.33457578 14895

JSON: /api/v1/satellites/69559 · /tle

For live sub-satellite position, see the globe view (requires WebGL).

§ Visibility from observer

Set your observer location to see the next 7 days of passes ≥ 10°. The values pass through the URL so the page stays shareable.

No JS? Fill the form by hand. The geolocation button needs JavaScript.